Miami, FL

4:22 PM EDT on April 24, 2017 (GMT -0400)
Miami International

Weather History for KMIA - January, 2014

Change the Weather History Date:

Monday, January 20, 2014

  Actual Average Record
Temperature  
Mean Temperature 65 °F 68 °F  
Max Temperature 76 °F 76 °F 87 °F (1947)
Min Temperature 54 °F 60 °F 31 °F (1977)
Degree Days  
Heating Degree Days 0 2  
Month to date heating degree days 44 40  
Since 1 July heating degree days 46 77  
Cooling Degree Days 0 5  
Month to date cooling degree days 115 100  
Year to date cooling degree days 115 100  
Growing Degree Days 14 (Base 50)    
Moisture  
Dew Point 53 °F    
Average Humidity 68    
Maximum Humidity 86    
Minimum Humidity 49    
Precipitation  
Precipitation 0.00 in 0.05 in 2.26 in (1983)
Month to date precipitation 0.84 1.00  
Year to date precipitation 0.84 1.00  
Snow  
Snow 0.00 in - - ()
Month to date snowfall 0.0  
Since 1 July snowfall 0.0  
Snow Depth 0.00 in    
Sea Level Pressure  
Sea Level Pressure 30.14 in    
Wind  
Wind Speed 3 mph (SW)    
Max Wind Speed 10 mph    
Max Gust Speed 18 mph    
Visibility 10 miles    
Events      
T = Trace of Precipitation, MM = Missing Value Source: NWS Daily Summary

Daily Weather History Graph

Daily Weather History Graph

Search for Another Location

Airport or City:

Trip Planner

Search our weather history database for the weather conditions in past years. The results will help you decide how hot, cold, wet, or windy it might be!

Date:

Astronomy

Jan. 20, 2014 Rise Set
Actual Time 7:08 AM EST 5:55 PM EST
Civil Twilight 6:44 AM EST 6:20 PM EST
Nautical Twilight 6:16 AM EST 6:48 PM EST
Astronomical Twilight 5:48 AM EST 7:16 PM EST
Moon 9:58 PM EST (1/20) 9:36 AM EST (1/20)
Length of Visible Light 11h 36m
Length of Day
10h 46m
Waning Gibbous, 83% of the Moon is Illuminated
Jan 20
Waning Gibbous
Jan 24
Last Quarter
Jan 30
New
Feb 6
First Quarter
Feb 14
Full

Hourly Weather History & Observations

Time (EST) Temp. Dew Point Humidity Pressure Visibility Wind Dir Wind Speed Gust Speed Precip Events Conditions
12:53 AM 55.0 °F 50.0 °F 83% 30.17 in 10.0 mi Calm Calm - N/A   Partly Cloudy
1:53 AM 55.0 °F 50.0 °F 83% 30.17 in 10.0 mi Calm Calm - N/A   Partly Cloudy
2:53 AM 55.0 °F 51.1 °F 86% 30.16 in 10.0 mi Calm Calm - N/A   Mostly Cloudy
3:53 AM 57.0 °F 51.1 °F 81% 30.15 in 10.0 mi SSW 4.6 mph - N/A   Mostly Cloudy
4:53 AM 57.0 °F 51.1 °F 81% 30.16 in 10.0 mi Calm Calm - N/A   Overcast
5:53 AM 57.9 °F 50.0 °F 75% 30.17 in 10.0 mi SSW 3.5 mph - N/A   Overcast
6:53 AM 57.9 °F 50.0 °F 75% 30.17 in 10.0 mi Calm Calm - N/A   Mostly Cloudy
7:53 AM 61.0 °F 50.0 °F 67% 30.18 in 10.0 mi Calm Calm - N/A   Mostly Cloudy
8:53 AM 64.9 °F 51.1 °F 61% 30.19 in 10.0 mi SW 3.5 mph - N/A   Mostly Cloudy
9:53 AM 68.0 °F 50.0 °F 52% 30.21 in 10.0 mi West 3.5 mph - N/A   Mostly Cloudy
10:53 AM 71.1 °F 52.0 °F 51% 30.20 in 10.0 mi West 5.8 mph - N/A   Scattered Clouds
11:53 AM 72.0 °F 54.0 °F 53% 30.17 in 10.0 mi NW 4.6 mph - N/A   Partly Cloudy
12:53 PM 73.0 °F 54.0 °F 51% 30.13 in 10.0 mi West 6.9 mph - N/A   Scattered Clouds
1:53 PM 75.0 °F 55.0 °F 50% 30.09 in 10.0 mi Variable 5.8 mph - N/A   Scattered Clouds
2:53 PM 73.0 °F 54.0 °F 51% 30.07 in 10.0 mi SSW 4.6 mph - N/A   Scattered Clouds
3:53 PM 75.0 °F 55.0 °F 50% 30.07 in 10.0 mi Variable 3.5 mph - N/A   Scattered Clouds
4:53 PM 73.0 °F 55.0 °F 53% 30.08 in 10.0 mi SSE 4.6 mph - N/A   Scattered Clouds
5:53 PM 70.0 °F 55.0 °F 59% 30.09 in 10.0 mi Calm Calm - N/A   Mostly Cloudy
6:53 PM 70.0 °F 55.9 °F 61% 30.09 in 10.0 mi WSW 4.6 mph - N/A   Mostly Cloudy
7:53 PM 68.0 °F 55.9 °F 65% 30.10 in 10.0 mi WSW 6.9 mph - N/A   Mostly Cloudy
8:53 PM 66.9 °F 55.9 °F 68% 30.11 in 10.0 mi WSW 5.8 mph - N/A   Mostly Cloudy
9:53 PM 66.0 °F 55.9 °F 70% 30.11 in 10.0 mi SW 5.8 mph - N/A   Mostly Cloudy
10:53 PM 64.9 °F 55.9 °F 73% 30.11 in 10.0 mi SW 4.6 mph - N/A   Overcast
11:53 PM 64.0 °F 55.0 °F 73% 30.09 in 10.0 mi SW 3.5 mph - N/A   Overcast